SL-14 DEB, 47082

Orbit data source: Space-Track

SL-14 DEB, 47082 is space debris in LEO originally from a launch on Thu, 15 Aug 1991 UTC launched from the Plesetsk Missile And Space Complex (PKMTR). Debris objects in space refer to the collection of defunct objects orbiting the Earth. Examples of debris include non-operational satellites, rocket bodies, and fragments generated from explosions, collisions, or faulty payload assembly.

Loading next visibility...
Identifier
47082, 1991-056DG
Orbit
LEO
Country
Flag of CISCIS
Related business
Manufacturer
Unknown
Mission
Spacecraft
Bus & Motor
Unknown
Mass
Unknown
Launch date (UTC)
1991-08-15 (34 years ago)
Launch vehicle
Unknown
Launch site
Plesetsk Missile And Space Complex (PKMTR)
Object type
Payload
Rocket body
Debris
Shape & HBR
Unknown shape, 0.1 m
Radar Cross Section
Small (<0.1 m²)

Expand to show TLE details & history
Last TLE update: 1 week ago

TLE from 1 week ago
0 SL-14 DEB
1 47082U 91056DG  25284.86522705 -.00000692  00000-0 -19755-2 0  9996
2 47082  82.6192 343.6540 0039662 170.8044 189.3810 13.11592732236124
Epoch: 2025-10-11T20:45Z
TLE epoch observation values (Epoch: 2025-10-11T20:45:55.617Z)
Latitude
-0.00007°
Longitude
11.48167°
Altitude
1,249.535 km
Speed
7.216 km/s
True Right ascension
22h 54m 36s
True Declination
0° 00' 00"
Sunlit
Object was in full shadow at epoch
Visualization orbit readout
Latitude
Unknown
Longitude
Unknown
Altitude
Unknown
Speed
Unknown
Apparent Right ascension
Unknown
Apparent Declination
Unknown
Sunlit
N/A
Visualization observer readout
Local Sidereal Time
09:22:46
Azimuth
Unknown
Elevation
Unknown
Doppler factor
Unknown
Orbital elements
Apogee altitude
1,244.366 km
Perigee altitude
1,184.141 km
Semi-major axis
7,592.391 km
Eccentricity
0.00397
Inclination
82.6192°
RAAN
343.654°
Arg. of periapsis
170.8044°
True anomaly
189.30728°
Mean anomaly
189.381°
Eccentric anomaly
189.3441°
Mean motion
3.28077 °/min
Orbital period
109.73 mins
BSTAR
-0.0019755
Loading maneuver chart data...
Computing Atmospheric mass density...
Loading historical data...
Loading historical data...
Loading historical data...
Loading historical data...
Loading historical data...
Loading historical data...
Loading historical data...

Documentation

Showing up to 5 results
|